This is the latest recevied weather packets stored in our database for station/object K1WJY. If no packets are shown the sender has not sent any weather packets the latest 1 day(s).
| Time | Temp. | Humidity | Pressure | Rain* | Wind** | Luminosity | Snow |
|---|---|---|---|---|---|---|---|
| 1778018820 | 13.33° C | 83% | 1008.9 hPa | 0 mm | 1.34 m/s, 131° | 108 W/m² | - |
| 1778018518 | 13.89° C | 83% | 1008.8 hPa | 0 mm | 2.68 m/s, 180° | 111 W/m² | - |
| 1778018216 | 13.89° C | 82% | 1009 hPa | 0 mm | 3.13 m/s, 202° | 159 W/m² | - |
| 1778017914 | 13.89° C | 82% | 1009.2 hPa | 0 mm | 2.24 m/s, 145° | 171 W/m² | - |
| 1778017611 | 13.89° C | 82% | 1009 hPa | 0 mm | 1.34 m/s, 230° | 158 W/m² | - |
| 1778017308 | 13.89° C | 82% | 1008.9 hPa | 0 mm | 2.24 m/s, 251° | 191 W/m² | - |
| 1778017006 | 13.89° C | 81% | 1009.2 hPa | 0 mm | 3.13 m/s, 187° | 165 W/m² | - |
| 1778016703 | 14.44° C | 81% | 1009.1 hPa | 0 mm | 1.79 m/s, 204° | 226 W/m² | - |
| 1778016398 | 13.89° C | 82% | 1008.7 hPa | 0 mm | 1.34 m/s, 215° | 209 W/m² | - |
| 1778016096 | 14.44° C | 82% | 1008.9 hPa | 0 mm | 1.34 m/s, 229° | 200 W/m² | - |
| 1778015793 | 14.44° C | 82% | 1009 hPa | 0 mm | 3.13 m/s, 131° | 245 W/m² | - |
| 1778015490 | 14.44° C | 81% | 1008.8 hPa | 0 mm | 4.02 m/s, 212° | 223 W/m² | - |
| 1778015187 | 14.44° C | 81% | 1008.9 hPa | 0 mm | 3.13 m/s, 173° | 257 W/m² | - |
| 1778014883 | 14.44° C | 81% | 1009.1 hPa | 0 mm | 0.45 m/s, 10° | 300 W/m² | - |
| 1778014581 | 14.44° C | 81% | 1009 hPa | 0 mm | 2.24 m/s, 239° | 308 W/m² | - |
| 1778014279 | 14.44° C | 81% | 1009.1 hPa | 0 mm | 1.79 m/s, 192° | 305 W/m² | - |
| 1778013976 | 14.44° C | 82% | 1009 hPa | 0 mm | 1.34 m/s, 189° | 298 W/m² | - |
| 1778013673 | 15° C | 81% | 1009.1 hPa | 0 mm | 1.79 m/s, 175° | 299 W/m² | - |
| 1778013369 | 14.44° C | 82% | 1009.3 hPa | 0 mm | 3.13 m/s, 192° | 348 W/m² | - |
| 1778013067 | 14.44° C | 83% | 1009 hPa | 0 mm | 3.13 m/s, 185° | 390 W/m² | - |
| 1778012762 | 14.44° C | 82% | 1009.1 hPa | 0 mm | 4.92 m/s, 116° | 368 W/m² | - |
| 1778012459 | 14.44° C | 83% | 1009.3 hPa | 0 mm | 3.13 m/s, 153° | 406 W/m² | - |
| 1778012155 | 14.44° C | 82% | 1009.1 hPa | 0 mm | 2.24 m/s, 212° | 426 W/m² | - |
| 1778011853 | 14.44° C | 82% | 1009.2 hPa | 0 mm | 3.58 m/s, 161° | 388 W/m² | - |
| 1778011551 | 14.44° C | 81% | 1009 hPa | 0 mm | 3.13 m/s, 117° | 403 W/m² | - |
* Rain latest hour (hover to see other rain measurements)
** Current wind speed in m/s (hover to see current wind gust speed)